Weather in Southeast Greensboro

United States     35°56′31″N   79°41′07″W
В апреле 2022 года жителям России запретили посещать сайт meteo.paraplan.net по решению Генеральной прокуратуры. Аудитория сайта уменьшилась в 10 раз. Владельцы сайта не видят смысла в поддержке погодного сервера в таких условиях. Сайт будет закрыт в октябре.
temp.,
°C
wind,
m/s
gust,
m/s
humid.,
%
clouds,
%
prec.,
mm/h
press.,
hPa
HPBL,
m
4 october, tue
tue423:00+8nne312680 0.0 1022387
02:00+7n3117397 0.0 1021302
05:00+7nnw24810 0.0 102088
08:00+8nnw24830 0.0 102099
11:00+17wnw24430 0.0 1018806
14:00+21nnw46234 0.0 10162134
17:00+20n36326 0.0 10152035
20:00+11nne256077 0.0 1017112
5 october, wed
wed523:00+11nw256490 0.0 101790
02:00+10wnw37613 0.0 1017125
05:00+9nw24610 0.0 101676
08:00+9wnw23620 0.0 101765
11:00+18n23450 0.0 1017648
14:00+22nnw23440 0.0 10161308
17:00+23n234711 0.0 10151602
20:00+16e117430 0.0 101711
6 october, thu
thu623:00+14n11825 0.0 101810
02:00+12ene229149 0.0 101817
05:00+12sse1194100 0.0 101910
08:00+12sw1290100 0.0 101939
11:00+20sw23570 0.0 1019599
14:00+24wsw46410 0.0 10171608
17:00+23wsw35440 0.0 10161726
20:00+17sw23610 0.0 101736
7 october, fri
fri723:00+15w22660 0.0 101835
02:00+14w22730 0.0 101818
05:00+13w22690 0.0 101829
08:00+13wsw24690 0.0 101982
11:00+22wsw35450 0.0 1019467
14:00+26wsw47330 0.0 10162071
17:00+26wsw463783 0.0 10151541
20:00+18nnw39627 0.0 1018204
8 october, sat
sat823:00+16n4107219 0.0 1020454
02:00+12nne4108215 0.0 1022433
05:00+10nne410725 0.0 1024397
08:00+8nne39750 0.0 1025404
11:00+14ne335668 0.0 1026857
14:00+18nne22385 0.0 10241278
17:00+19nne12330 0.0 10221465
20:00+11se22580 0.0 102315